EW5659 Weather Reports


time (UTC)temp
F
wind
direction
speed
knots
gust
knots
rain 1hr
in
rain 24hr
in
rain mn
in
humidity
%
barometer
mb
20260506094530 52 360 5.2 11.3 0.00 0.00 0.00 75 1013.3
20260506094013 51 360 4.3 11.3 0.00 0.00 0.00 76 1013.3
20260506093510 51 360 5.2 9.6 0.00 0.00 0.00 75 1013.3
20260506093031 52 360 3.5 10.4 0.00 0.00 0.00 76 1013.2
20260506092513 51 360 3.5 10.4 0.00 0.00 0.00 75 1013.2
20260506092012 51 360 5.2 11.3 0.00 0.00 0.00 75 1013.1
20260506091532 52 360 4.3 11.3 0.00 0.00 0.00 75 1013.0
20260506091013 51 360 3.5 11.3 0.00 0.00 0.00 76 1013.2
20260506090514 51 360 3.5 9.6 0.00 0.00 0.00 76 1013.0
20260506090032 51 360 4.3 13.9 0.00 0.00 0.00 76 1013.1
20260506085513 50 360 5.2 13.9 0.00 0.00 0.00 77 1013.1
20260506085013 50 360 4.3 12.2 0.00 0.00 0.00 77 1013.0
20260506084529 50 360 5.2 10.4 0.00 0.00 0.00 77 1013.0
20260506084013 50 360 2.6 9.6 0.00 0.00 0.00 78 1013.1
20260506083512 49 360 2.6 10.4 0.00 0.00 0.00 78 1013.2
20260506083032 49 360 5.2 11.3 0.00 0.00 0.00 78 1013.1
20260506082513 49 360 3.5 13.0 0.00 0.00 0.00 79 1013.2
20260506082013 49 360 4.3 13.0 0.00 0.00 0.00 80 1013.1
20260506081530 49 360 5.2 13.0 0.00 0.00 0.00 79 1013.1
20260506081011 49 360 3.5 10.4 0.00 0.00 0.00 81 1013.2
20260506080513 48 360 3.5 8.7 0.00 0.00 0.00 82 1013.2
20260506073512 47 360 4.3 10.4 0.00 0.00 0.00 82 1013.1
20260506073030 47 360 5.2 10.4 0.00 0.00 0.00 82 1013.0
20260506072515 47 360 4.3 11.3 0.00 0.00 0.00 82 1013.2
20260506072010 47 288 3.5 11.3 0.00 0.00 0.00 83 1013.2
20260506071532 46 360 2.6 11.3 0.00 0.00 0.00 84 1013.0
20260506071012 46 360 3.5 8.7 0.00 0.00 0.00 84 1012.9
20260506070514 46 15 3.5 8.7 0.00 0.00 0.00 85 1012.9
20260506062012 43 360 4.3 9.6 0.00 0.00 0.00 87 1012.8
20260506061535 43 360 3.5 10.4 0.00 0.00 0.00 88 1012.9
20260506061011 43 360 3.5 10.4 0.00 0.00 0.00 87 1012.9
20260506060511 43 360 3.5 10.4 0.00 0.00 0.00 88 1012.8
20260506051010 42 360 2.6 7.0 0.00 0.00 0.00 89 1012.8
20260506050516 42 360 1.7 7.0 0.00 0.00 0.00 89 1012.8
20260506045011 42 360 2.6 7.0 0.00 0.00 0.00 88 1012.8
20260506044539 42 360 1.7 7.0 0.00 0.00 0.00 88 1012.7
20260506044016 42 360 1.7 4.3 0.00 0.00 0.00 88 1012.8
20260506043514 42 360 1.7 7.0 0.00 0.00 0.00 87 1012.8
20260506043029 42 360 1.7 7.0 0.00 0.00 0.00 87 1012.8
20260506042510 42 360 1.7 5.2 0.00 0.00 0.00 87 1012.8
20260506042016 42 360 1.7 7.8 0.00 0.00 0.00 87 1012.9
20260506041528 42 360 1.7 7.8 0.00 0.00 0.00 87 1012.9
20260506041012 42 360 2.6 7.0 0.00 0.00 0.00 86 1012.8
20260506040510 42 360 2.6 7.0 0.00 0.00 0.00 86 1012.7
20260506040050 43 360 1.7 7.0 0.00 0.00 0.00 86 1012.7
20260506035513 43 360 2.6 9.6 0.00 0.00 0.00 86 1012.9
20260506035013 43 360 3.5 9.6 0.00 0.00 0.00 85 1012.8
20260506034534 44 360 5.2 9.6 0.00 0.00 0.00 85 1012.8
20260506034011 44 360 4.3 9.6 0.00 0.00 0.00 85 1012.9
20260506033513 44 360 3.5 8.7 0.00 0.00 0.00 84 1012.9
20260506033031 45 360 3.5 12.2 0.00 0.00 0.00 84 1012.9
20260506032512 45 360 4.3 12.2 0.00 0.00 0.00 84 1012.9
20260506032013 45 360 5.2 10.4 0.00 0.00 0.00 84 1013.0
20260506031542 46 360 4.3 11.3 0.00 0.00 0.00 84 1012.9
20260506031015 46 360 4.3 11.3 0.00 0.00 0.00 84 1012.9
20260506030513 46 360 5.2 11.3 0.00 0.00 0.00 84 1013.0
20260506030031 46 360 4.3 9.6 0.00 0.00 0.00 83 1013.0
20260506025510 46 360 4.3 9.6 0.00 0.00 0.00 84 1013.1
20260506025013 46 360 3.5 9.6 0.00 0.00 0.00 83 1013.1
20260506024530 46 360 4.3 9.6 0.00 0.00 0.00 83 1013.0
20260506024013 46 360 3.5 7.8 0.00 0.00 0.00 83 1013.1
20260506023512 46 360 3.5 7.8 0.00 0.00 0.00 83 1013.2
20260506023032 47 360 3.5 7.8 0.00 0.00 0.00 83 1013.2
20260506022513 47 360 2.6 7.8 0.00 0.00 0.00 83 1013.3
20260506022012 47 360 2.6 8.7 0.00 0.00 0.00 82 1013.2
20260506021529 47 360 3.5 8.7 0.00 0.00 0.00 82 1013.2
20260506021016 47 360 1.7 7.0 0.00 0.00 0.00 81 1013.3
20260506020512 47 360 2.6 8.7 0.00 0.00 0.00 81 1013.3
20260506020030 47 360 2.6 8.7 0.00 0.00 0.00 81 1013.3
20260506015513 47 360 2.6 9.6 0.00 0.00 0.00 81 1013.4
20260506015010 47 360 3.5 9.6 0.00 0.00 0.00 80 1013.4
20260506014533 47 360 4.3 9.6 0.00 0.00 0.00 80 1013.4
20260506014009 47 360 3.5 8.7 0.00 0.00 0.00 80 1013.4
20260506013514 47 360 3.5 9.6 0.00 0.00 0.00 80 1013.3
20260506013030 47 360 3.5 13.0 0.00 0.00 0.00 80 1013.3
20260506012513 47 360 3.5 13.0 0.00 0.00 0.00 80 1013.3
20260506012011 48 360 5.2 10.4 0.00 0.00 0.00 80 1013.3
20260506011532 48 360 4.3 10.4 0.00 0.00 0.00 81 1013.3
20260506011011 48 360 4.3 12.2 0.00 0.00 0.00 81 1013.4
20260506010512 48 360 5.2 12.2 0.00 0.00 0.00 81 1013.2
20260506010031 48 360 5.2 9.6 0.00 0.00 0.00 81 1013.3
20260506005513 48 360 3.5 9.6 0.00 0.00 0.00 81 1013.3
20260506005012 48 360 3.5 8.7 0.00 0.00 0.00 81 1013.4
20260506004529 48 360 3.5 8.7 0.00 0.00 0.00 81 1013.4
20260506004016 48 360 3.5 7.8 0.00 0.00 0.00 82 1013.4
20260506003512 48 360 3.5 8.7 0.00 0.00 0.00 82 1013.3
20260506003030 48 360 3.5 8.7 0.00 0.00 0.00 82 1013.5
20260506002509 49 360 3.5 8.7 0.00 0.00 0.00 82 1013.6
20260506002009 49 360 3.5 11.3 0.00 0.00 0.00 83 1013.5
20260506001530 49 360 4.3 11.3 0.00 0.00 0.00 83 1013.5
20260506001012 49 360 4.3 9.6 0.00 0.00 0.00 83 1013.5
20260506000515 49 360 4.3 9.6 0.00 0.00 0.00 83 1013.4
20260506000033 49 360 1.7 5.2 0.00 0.00 0.00 83 1013.4
20260505235514 49 360 1.7 5.2 0.00 0.00 0.00 82 1013.4
20260505235015 49 360 1.7 5.2 0.00 0.00 0.00 82 1013.5
20260505234530 49 360 2.6 7.0 0.00 0.00 0.00 82 1013.5
20260505234013 49 360 2.6 7.0 0.00 0.00 0.00 82 1013.7
20260505233514 49 360 3.5 7.0 0.00 0.00 0.00 82 1013.6
20260505233031 49 360 2.6 7.0 0.00 0.00 0.00 82 1013.7
20260505232515 49 360 3.5 7.8 0.00 0.00 0.00 82 1013.6
20260505232012 49 360 2.6 7.8 0.00 0.00 0.00 82 1013.7
20260505231541 49 360 3.5 7.8 0.00 0.00 0.00 82 1013.7
20260505231020 49 360 1.7 5.2 0.00 0.00 0.00 82 1013.6
20260505230516 49 360 1.7 5.2 0.00 0.00 0.00 81 1013.7
20260505230034 49 360 1.7 5.2 0.00 0.00 0.00 81 1013.8
20260505225520 49 360 1.7 7.0 0.00 0.00 0.00 81 1013.8
20260505225013 49 360 2.6 7.0 0.00 0.00 0.00 81 1013.8
20260505224530 49 360 1.7 5.2 0.00 0.00 0.00 80 1013.8
20260505224012 49 360 0.9 5.2 0.00 0.00 0.00 80 1013.8
20260505223516 49 360 2.6 7.0 0.00 0.00 0.00 80 1013.8
20260505223034 49 360 2.6 7.0 0.00 0.00 0.00 80 1013.8
20260505222514 49 360 2.6 7.0 0.00 0.00 0.00 80 1013.8
20260505222013 49 360 2.6 8.7 0.00 0.00 0.00 80 1013.9
20260505221529 49 360 3.5 8.7 0.00 0.00 0.00 79 1013.9
20260505221013 49 360 4.3 8.7 0.00 0.00 0.00 79 1013.8
20260505220517 49 360 2.6 7.8 0.00 0.00 0.00 79 1014.0
20260505220039 49 360 3.5 7.8 0.00 0.00 0.00 79 1013.9
20260505215515 50 360 2.6 7.8 0.00 0.00 0.00 79 1013.9
20260505215015 50 360 2.6 9.6 0.00 0.00 0.00 78 1013.8
20260505214536 50 360 3.5 10.4 0.00 0.00 0.00 78 1013.8
20260505214015 50 360 4.3 10.4 0.00 0.00 0.00 78 1013.8
20260505213514 50 360 2.6 8.7 0.00 0.00 0.00 78 1013.8
20260505213033 50 360 3.5 8.7 0.00 0.00 0.00 78 1013.8
20260505212515 50 360 3.5 8.7 0.00 0.00 0.00 78 1013.7
20260505212014 50 360 3.5 7.8 0.00 0.00 0.00 78 1013.7
20260505211530 51 360 3.5 8.7 0.00 0.00 0.00 78 1013.8
20260505211015 51 360 3.5 10.4 0.00 0.00 0.00 78 1013.8
20260505210552 51 360 3.5 10.4 0.00 0.00 0.00 77 1013.7
20260505210031 51 360 4.3 9.6 0.00 0.00 0.00 77 1013.7
20260505205514 51 360 3.5 13.9 0.00 0.00 0.00 76 1013.7
20260505205014 51 360 3.5 13.9 0.00 0.00 0.00 76 1013.8
20260505204535 51 360 2.6 8.7 0.00 0.00 0.00 76 1013.7
20260505204014 52 360 2.6 11.3 0.00 0.00 0.00 76 1013.7
20260505203513 52 360 3.5 11.3 0.00 0.00 0.00 76 1013.6
20260505203032 52 360 4.3 9.6 0.00 0.00 0.00 78 1013.6
20260505202512 52 360 1.7 5.2 0.00 0.00 0.00 80 1013.6
20260505202014 52 360 1.7 5.2 0.00 0.00 0.00 81 1013.5
20260505201535 52 360 0.9 5.2 0.00 0.00 0.00 82 1013.4
20260505201011 52 360 1.7 5.2 0.00 0.00 0.00 82 1013.5
20260505200518 52 360 1.7 4.3 0.00 0.00 0.00 83 1013.5
20260505200039 52 360 0.9 4.3 0.00 0.00 0.00 83 1013.4
20260505195516 52 360 1.7 4.3 0.00 0.00 0.00 83 1013.4
20260505195013 52 360 0.9 7.0 0.00 0.00 0.00 83 1013.3
20260505194532 52 360 1.7 7.0 0.00 0.00 0.00 83 1013.2
20260505194014 52 360 0.9 7.0 0.00 0.00 0.00 83 1013.2
20260505193513 52 360 0.9 4.3 0.00 0.00 0.00 83 1013.2
20260505193030 52 360 0.9 7.0 0.00 0.00 0.00 83 1013.1
20260505192516 53 360 0.9 7.8 0.00 0.00 0.00 83 1013.2
20260505192014 53 360 2.6 7.8 0.00 0.00 0.00 82 1012.9
20260505191529 53 360 1.7 7.8 0.00 0.00 0.00 82 1012.9
20260505191015 53 360 2.6 9.6 0.00 0.00 0.00 81 1013.0
20260505190514 53 360 2.6 9.6 0.00 0.00 0.00 81 1012.9
20260505190037 53 360 3.5 7.8 0.00 0.00 0.00 80 1012.9
20260505185514 54 360 1.7 9.6 0.00 0.00 0.00 79 1012.8
20260505185014 54 360 1.7 10.4 0.00 0.00 0.00 77 1012.9
20260505184530 54 42 3.5 10.4 0.00 0.00 0.00 75 1012.8
20260505184014 55 43 2.6 13.9 0.00 0.00 0.00 73 1012.6
20260505183513 55 56 4.3 13.9 0.00 0.00 0.00 73 1012.5
20260505183032 55 57 4.3 13.9 0.00 0.00 0.00 72 1012.4
20260505182513 56 73 2.6 10.4 0.00 0.00 0.00 70 1012.5
20260505182013 56 45 1.7 5.2 0.00 0.00 0.00 67 1012.5
20260505181529 56 86 0.9 6.1 0.00 0.00 0.00 67 1012.4
20260505181014 56 71 1.7 6.1 0.00 0.00 0.00 69 1012.4
20260505180513 57 163 0.9 4.3 0.00 0.00 0.00 71 1012.4
20260505180034 57 163 1.7 4.3 0.00 0.00 0.00 71 1012.3
20260505175515 57 163 1.7 4.3 0.00 0.00 0.00 71 1012.3
20260505175017 57 360 0.9 3.5 0.00 0.00 0.00 70 1012.1
20260505174539 57 360 0.9 3.5 0.00 0.00 0.00 70 1012.2
20260505174018 57 360 1.7 3.5 0.00 0.00 0.00 69 1012.2
20260505173513 57 360 1.7 3.5 0.00 0.00 0.00 68 1012.2
20260505173030 57 360 0.9 3.5 0.00 0.00 0.00 68 1012.1
20260505172513 57 360 0.0 1.7 0.00 0.00 0.00 67 1012.1
20260505172016 58 0 0.0 0.0 0.00 0.00 0.00 67 1012.1
20260505171529 58 0 0.0 0.0 0.00 0.00 0.00 67 1012.2
20260505171012 58 0 0.0 0.0 0.00 0.00 0.00 66 1012.1
20260505170515 58 0 0.0 2.6 0.00 0.00 0.00 66 1012.2
20260505170030 58 0 0.0 2.6 0.00 0.00 0.00 65 1012.2
20260505165514 58 360 0.9 3.5 0.00 0.00 0.00 64 1012.2
20260505165016 58 360 1.7 3.5 0.00 0.00 0.00 64 1012.2
20260505164528 58 360 0.9 1.7 0.00 0.00 0.00 65 1012.2
20260505164014 58 0 0.0 1.7 0.00 0.00 0.00 65 1012.2
20260505163513 58 360 0.0 1.7 0.00 0.00 0.00 64 1012.2
20260505163036 59 360 0.0 4.3 0.00 0.00 0.00 63 1012.2
20260505162513 59 0 0.0 4.3 0.00 0.00 0.00 63 1012.2
20260505162012 59 360 1.7 4.3 0.00 0.00 0.00 62 1012.1
20260505161533 59 161 0.0 3.5 0.00 0.00 0.00 62 1012.1
20260505161014 59 161 0.0 3.5 0.00 0.00 0.00 62 1012.0
20260505160514 59 161 0.0 4.3 0.00 0.00 0.00 62 1012.0
20260505153029 60 126 1.7 5.2 0.00 0.00 0.00 58 1012.2
20260505152514 60 90 0.9 5.2 0.00 0.00 0.00 58 1012.2
20260505152018 60 90 1.7 5.2 0.00 0.00 0.00 57 1012.2
20260505151532 60 41 0.9 8.7 0.00 0.00 0.00 56 1012.2
20260505151011 60 38 1.7 8.7 0.00 0.00 0.00 55 1012.2
20260505150514 61 28 2.6 8.7 0.00 0.00 0.00 55 1012.3
20260505140513 61 16 0.9 7.0 0.00 0.00 0.00 54 1012.5
20260505125015 61 40 2.6 10.4 0.00 0.00 0.00 53 1012.6
20260505124540 61 51 2.6 10.4 0.00 0.00 0.00 55 1012.7
20260505124017 62 324 2.6 7.8 0.00 0.00 0.00 52 1012.6
20260505123517 63 352 3.5 7.8 0.00 0.00 0.00 51 1012.6
20260505123038 63 5 0.0 7.0 0.00 0.00 0.00 52 1012.5
20260505122511 62 5 2.6 7.0 0.00 0.00 0.00 51 1012.6
20260505122016 62 352 2.6 6.1 0.00 0.00 0.00 52 1012.7
20260505121531 62 352 1.7 8.7 0.00 0.00 0.00 54 1012.6
20260505121013 62 29 1.7 8.7 0.00 0.00 0.00 55 1012.8
20260505120513 62 5 3.5 7.8 0.00 0.00 0.00 56 1012.7
20260505120030 61 5 0.0 7.0 0.00 0.00 0.00 53 1012.8
20260505115513 61 360 2.6 7.0 0.00 0.00 0.00 54 1012.8
20260505115014 62 341 0.9 7.0 0.00 0.00 0.00 52 1012.8
20260505114529 63 348 1.7 5.2 0.00 0.00 0.00 54 1012.8
20260505114017 62 49 1.7 5.2 0.00 0.00 0.00 55 1012.8
20260505113512 61 65 1.7 7.8 0.00 0.00 0.00 54 1013.0
20260505113031 61 67 1.7 7.8 0.00 0.00 0.00 53 1013.1
20260505112517 61 360 2.6 7.8 0.00 0.00 0.00 56 1013.1
20260505112014 61 352 1.7 5.2 0.00 0.00 0.00 55 1013.2
20260505111536 61 352 1.7 5.2 0.00 0.00 0.00 55 1013.3
20260505111015 61 40 1.7 7.0 0.00 0.00 0.00 56 1013.3
20260505110514 60 330 2.6 7.0 0.00 0.00 0.00 55 1013.3
20260505102012 59 9 2.6 7.8 0.00 0.00 0.00 55 1013.4
20260505101531 59 24 2.6 7.8 0.00 0.00 0.00 56 1013.4
20260505101013 59 0 1.7 6.1 0.00 0.00 0.00 56 1013.5
20260505100517 58 48 0.9 7.0 0.00 0.00 0.00 57 1013.5
20260505100034 58 65 2.6 7.0 0.00 0.00 0.00 58 1013.6
20260505095513 58 350 2.6 7.0 0.00 0.00 0.00 57 1013.5
20260505095012 58 327 1.7 7.0 0.00 0.00 0.00 59 1013.6